Weather observations for the past three days for
Majuro Atoll - NWS Office
Metric (Imperial)
Date Time (+12) Wind (kph) Vis. (km) Weather Sky Cond. Temperature (ºC) Relative Humidity Wind Chill (°C) Heat Index (°C) Pressure Precipitation (cm)
Air Dwpt 6 hour altimeter (cm) sea level (mb) 1 hr 3 hr 6 hr
Max. Min.
09 20:50 E 9 24.14 Overcast FEW015 SCT050 BKN120 OVC300 29.2 25.6 81% 36 75.79 1010.5
09 19:51 E 11 24.14 Overcast FEW015 SCT050 BKN120 OVC300 29.3 25.6 81% 36 75.77 1010.0
09 18:53 E 9 24.14 Overcast FEW015 SCT050 BKN120 OVC300 29.2 25.4 80% 35 75.74 1009.9
09 15:51 E 9 24.14 Overcast FEW015 SCT050 BKN120 OVC300 30 25.7 78% 37 75.64 1008.3
09 14:53 E 11 24.14 Overcast FEW015 SCT050 BKN120 OVC300 30.1 25.7 77% 37 75.67 1008.7
09 13:50 E 7 24.14 Overcast FEW015 SCT050 BKN120 OVC300 30.1 25.6 77% 37 75.67 1008.8
09 12:53 E 9 24.14 Overcast FEW015 SCT050 BKN120 OVC300 29.3 25.8 81% 36 75.74 1010.0
09 11:50 E 9 24.14 Overcast FEW015 SCT050 BKN120 OVC300 31 25.8 31 28.8 74% 39 75.74 1010.0
09 10:50 E 17 24.14 Overcast FEW015 SCT050 BKN120 OVC300 30.3 26.2 79% 38 75.82 1010.7
09 09:53 E 13 24.14 Overcast FEW015 SCT050 BKN120 OVC300 30.1 25.4 76% 37 75.82 1010.9
09 08:50 E 7 24.14 Overcast FEW015 SCT050 BKN120 OVC300 29.6 25 76% 36 75.82 1010.8
09 07:50 E 7 24.14 Mostly Cloudy FEW015 SCT050 BKN300 29.3 25.1 78% 35 75.79 1010.6
09 06:55 E 15 24.14 Mostly Cloudy FEW015 BKN120 BKN300 28.9 25.2 80% 35 75.74 1009.7
09 05:54 E 17 24.14 Overcast FEW015 SCT050 BKN120 OVC300 28.8 25.1 28.8 28.6 80% 34 75.69 1009.1
09 04:58 E 11 24.14 Overcast FEW015 SCT050 BKN120 OVC300 28.7 25 80% 34 75.67 1008.7
09 02:56 E 17 24.14 Overcast FEW015 SCT050 BKN120 OVC300 28.6 25 81% 34 75.64 1008.5
09 01:51 E 13 24.14 Overcast FEW015 SCT050 BKN120 OVC300 28.7 25.1 81% 34 75.67 1008.9
09 00:56 E 15 24.14 Overcast FEW015 SCT050 BKN120 OVC300 28.7 25 80% 34 75.69 1009.2
08 23:51 E 15 24.14 Overcast FEW015 SCT050 BKN120 OVC300 28.8 25.1 28.8 28.1 80% 34 75.77 1010.0
08 22:57 E 19 24.14 Overcast FEW015 SCT050 BKN120 OVC300 28.6 24.6 79% 33 75.79 1010.4
08 21:51 E 9 24.14 Overcast FEW015 SCT050 BKN120 OVC300 28.7 25 80% 34 75.79 1010.5
08 20:54 E 9 24.14 Overcast FEW015 SCT050 BKN120 OVC300 28.6 25.2 82% 34 75.77 1010.1
08 19:50 E 9 24.14 Overcast FEW015 SCT050 BKN120 OVC300 28.2 24.3 79% 33 75.74 1009.7
08 18:52 E 9 24.14 Overcast FEW015 SCT050 BKN120 OVC300 28.1 24.6 81% 33 75.72 1009.5
08 17:54 NE 15 24.14 Overcast FEW015 SCT050 BKN120 OVC300 28.1 24.7 29.8 28.1 82% 33 75.62 1008.2
08 16:53 E 13 24.14 Overcast FEW014TCU SCT050 BKN120 OVC300 28.1 24.1 79% 32 75.59 1007.9
08 15:52 E 13 24.14 Overcast FEW015 SCT050 BKN120 OVC300 28.5 24.7 80% 33 75.62 1008.3
08 14:52 NE 17 24.14 Overcast FEW015 SCT050 BKN120 OVC300 28.8 25.3 81% 34 75.64 1008.5
08 13:52 NE 19 24.14 Overcast FEW015 SCT050 BKN120 OVC300 29.1 25.3 80% 35 75.67 1008.9
08 12:51 NE 22 24.14 Overcast FEW015 SCT050 BKN120 OVC300 29.7 25.4 78% 36 75.74 1009.7
08 11:51 NE 19 24.14 Overcast FEW015 SCT050 BKN120 OVC300 29.8 25.8 30.7 27.1 79% 37 75.77 1010.0 0.2
08 10:51 E 11 24.14 Overcast FEW014 SCT045 BKN120 OVC300 30.7 25.4 73% 38 75.84 1011.0
08 09:51 E 9 24.14 Overcast FEW014 SCT045 BKN120 OVC300 29.7 24.9 75% 36 75.84 1011.2
08 07:52 E 9 22.53 Light Rain FEW014 SCT045 BKN110 OVC130 27.2 24.4 85% 31 75.82 1011.0
08 06:51 E 9 22.53 Light Rain SCT014 SCT045 BKN110 OVC130 26.7 24.3 87% 30 75.77 1010.0
08 05:52 E 22 19.31 Mostly Cloudy SCT014TCU SCT045 BKN110 26.6 24.4 27 26.3 88% 29 75.74 1009.9 2.16
08 04:57 E 28 24.14 Mostly Cloudy SCT014TCU SCT045 BKN110 26.7 24.4 87% 30 75.72 1009.6
08 03:54 E 20 24.14 Mostly Cloudy SCT014TCU SCT045 BKN110 26.9 24.8 88% 30 75.69 1009.0
08 02:58 E 11 24.14 Mostly Cloudy SCT014TCU SCT045 BKN110 26.3 24.3 89% 29 75.69 1009.0 1.96
08 01:50 E 17 19.31 Light Showers Rain SCT014TCU SCT050 OVC110 27 24.8 88% 31 75.72 1009.4
08 00:56 E 15 24.14 Overcast SCT014TCU SCT050 OVC110 26.4 24.3 88% 29 75.77 1010.0
07 23:55 E 17 19.31 Light Showers Rain SCT014TCU SCT050 OVC110 26.5 24.1 28.5 26.5 87% 29 75.82 1010.9 0.15
07 22:55 SE 31 24.14 Overcast SCT014TCU SCT050 OVC110 27.1 24.7 87% 31 75.79 1010.3
07 21:56 E 24 24.14 Overcast FEW015 SCT050 BKN120 OVC300 28.5 24.8 80% 33 75.82 1010.7
07 20:53 E 24 24.14 Overcast FEW015 SCT050 BKN120 OVC300 28.4 24.5 79% 33 75.79 1010.3
07 19:50 E 28 24.14 Mostly Cloudy FEW014TCU SCT050 BKN110 28.2 24.6 81% 33 75.74 1009.8
07 18:52 NE 26 24.14 Mostly Cloudy FEW014TCU SCT050 BKN110 27.8 24.6 83% 32 75.67 1008.8
07 16:58 E 22 24.14 Mostly Cloudy FEW015 SCT050 BKN120 30.1 24.8 73% 36 75.62 1008.0
07 15:58 N 26 24.14 A Few Clouds FEW016 30.5 25 72% 37 75.54 1007.2
07 14:58 E 22 24.14 A Few Clouds FEW016 30.6 24.9 72% 37 75.54 1007.1
07 13:58 NE 22 24.14 A Few Clouds FEW016 30.3 24.8 72% 36 75.57 1007.4
07 10:58 NE 26 24.14 A Few Clouds FEW016 30.9 25.1 71% 38 75.72 1009.4
07 09:58 NE 19 24.14 A Few Clouds FEW015 30.7 25.1 72% 37 75.69 1009.3
07 08:58 E 26 24.14 Mostly Cloudy FEW015 BKN300 30.1 24.6 72% 36 75.69 1009.0
07 07:56 E 31 24.14 Mostly Cloudy FEW015 BKN300 29.5 24.2 73% 35 75.64 1008.4
07 06:55 E 20 24.14 Mostly Cloudy FEW015 BKN300 28.9 24.3 76% 34 75.59 1007.8
07 05:54 E 22 24.14 Mostly Cloudy FEW015 BKN300 28.8 24 28.8 27.6 75% 33 75.54 1007.2 0.18
07 04:50 E 15 24.14 Mostly Cloudy FEW015 BKN300 28.7 23.8 75% 33 75.54 1007.1
07 03:50 E 30 24.14 Mostly Cloudy FEW015 SCT050 BKN300 28.6 23.9 76% 33 75.57 1007.3
07 02:55 E 24 24.14 Mostly Cloudy FEW015 SCT050 BKN300 28.4 24.1 78% 33 75.57 1007.4 0.18
07 01:56 E 17 24.14 Overcast FEW014 SCT050 BKN110 OVC300 27.6 24.3 82% 31 75.62 1008.2
07 00:54 E 19 24.14 Overcast FEW015 SCT050 BKN120 OVC300 28.6 24.8 80% 34 75.69 1009.0
06 23:55 N 30 24.14 Overcast SCT014TCU SCT050 OVC110 27.9 24.6 28.8 27.9 82% 32 75.74 1009.8
06 22:54 E 15 24.14 Overcast FEW015 SCT050 BKN120 OVC300 28.5 24.9 81% 34 75.77 1010.1
Date Time (+12) Wind (kph) Vis. (km) Weather Sky Cond. Air Dwpt Max. Min. Relative Humidity Wind Chill (°C) Heat Index (°C) altimeter (cm) sea level (mb) 1 hr 3 hr 6 hr
6 hour
Temperature (ºC) Pressure Precipitation (cm)